MST,Max TemperatureF,Mean TemperatureF,Min TemperatureF,Max Dew PointF,MeanDew PointF,Min DewpointF,Max Humidity, Mean Humidity, Min Humidity, Max Sea Level PressureIn, Mean Sea Level PressureIn, Min Sea Level PressureIn, Max VisibilityMiles, Mean VisibilityMiles, Min VisibilityMiles, Max Wind SpeedMPH, Mean Wind SpeedMPH, Max Gust SpeedMPH,PrecipitationIn, CloudCover, Events, WindDirDegrees
2014-1-1,32,18,0,28,17,-6,93,69,51,30.35,30.20,30.01,10,8,0,17,7,25,0.11,6,Snow,303
2014-1-2,17,5,-7,7,1,-13,85,74,58,30.45,30.34,30.24,10,9,1,6,0,,0.00,2,,289
2014-1-3,35,15,-5,18,3,-11,85,64,30,30.24,29.99,29.74,10,10,1,13,1,22,0.00,3,Snow,349
2014-1-4,33,17,1,27,10,-4,86,67,43,29.99,29.83,29.69,10,9,0,20,6,25,0.00,7,Snow,313
2014-1-5,15,9,3,5,1,-4,85,68,45,30.23,30.09,29.96,10,8,2,17,6,24,0.00,8,Snow,284
2014-1-6,21,8,-5,3,-4,-13,78,58,36,30.39,30.32,30.22,10,10,4,15,6,22,0.00,1,,201
2014-1-7,12,0,-13,9,-4,-18,85,73,57,30.33,30.18,30.06,10,8,2,5,0,,0.00,3,Snow,117
2014-1-8,32,21,10,23,15,7,93,80,60,30.12,30.06,30.02,10,9,4,0,0,,0.00,8,Snow,-1
2014-1-9,35,24,14,25,17,10,93,77,52,30.04,29.91,29.75,10,8,0,16,3,30,0.00,7,Snow,271
2014-1-10,30,22,15,23,15,3,93,71,53,30.06,29.87,29.79,10,6,0,17,6,29,0.00,7,Snow,260
2014-1-11,41,34,28,25,22,19,80,60,45,30.21,30.04,29.79,10,9,2,29,11,39,0.00,3,Snow,245
2014-1-12,35,27,19,25,16,9,86,65,47,30.10,29.87,29.66,10,8,0,22,12,32,0.00,7,Snow,277
2014-1-13,30,24,19,21,15,12,86,66,51,30.25,30.17,30.10,10,7,1,26,9,32,0.00,8,Snow,239
2014-1-14,32,26,21,21,18,14,80,63,51,30.46,30.35,30.16,10,9,2,24,11,36,0.00,7,Snow,285
2014-1-15,33,20,8,18,11,3,92,69,48,30.45,30.37,30.26,10,10,5,12,1,16,0.00,1,,79
2014-1-16,35,16,-4,14,3,-9,92,69,35,30.39,30.34,30.28,10,10,2,13,2,17,0.00,0,Snow,66
2014-1-17,19,7,-5,10,-1,-9,85,80,67,30.37,30.31,30.23,10,10,5,7,0,,0.00,0,,89
2014-1-18,21,7,-7,9,-2,-13,85,75,54,30.46,30.39,30.29,10,10,5,4,0,,0.00,0,,215
2014-1-19,17,3,-11,5,-6,-17,85,75,58,30.45,30.37,30.27,10,10,7,4,0,,0.00,0,,66
2014-1-20,21,6,-9,9,-5,-15,85,73,54,30.55,30.40,30.27,10,10,7,5,0,,0.00,0,Snow,186
2014-1-21,14,0,-13,3,-9,-18,85,74,57,30.58,30.48,30.37,10,8,0,4,0,,0.00,2,Snow,100
2014-1-22,14,-1,-16,3,-9,-24,79,71,57,30.36,30.19,30.04,10,9,1,4,0,,0.00,1,Snow,180
2014-1-23,24,8,-9,9,-1,-15,85,71,43,30.51,30.32,30.09,10,9,0,6,0,,0.00,2,Snow,122
2014-1-24,10,-4,-18,-4,-13,-26,84,68,48,30.63,30.54,30.47,10,10,7,4,0,,0.00,0,,50
2014-1-25,17,3,-11,1,-8,-17,85,68,49,30.52,30.35,30.20,10,10,0,0,0,,0.00,0,Snow,-1
2014-1-26,30,10,-9,16,0,-15,84,65,47,30.20,30.06,29.96,10,10,3,9,1,9,0.00,3,Snow,292
2014-1-27,30,22,14,23,17,3,86,72,47,30.03,29.94,29.87,10,7,1,14,4,22,0.00,8,Snow,343
2014-1-28,17,2,-13,3,-6,-17,84,67,49,30.24,30.16,30.03,10,10,4,14,2,21,0.00,1,,3
2014-1-29,35,12,-11,28,4,-17,78,68,46,30.21,30.00,29.61,10,9,3,34,3,46,0.00,5,Snow,221
2014-1-30,33,30,26,30,24,18,93,79,60,29.78,29.71,29.63,10,4,0,31,9,38,0.23,8,Rain-Snow,227
2014-1-31,26,22,19,23,20,14,93,85,68,29.73,29.69,29.63,10,6,1,6,1,,0.02,8,Rain-Snow,311